Weather History for MMLP - December, 2011

Change the Weather History Date:

Tuesday, December 13, 2011

  Actual Average Record
Temperature  
Mean Temperature 72 °F -  
Max Temperature 77 °F 76 °F - ()
Min Temperature 66 °F 53 °F - ()
Cooling Degree Days 6    
Growing Degree Days 22 (Base 50)    
Moisture  
Dew Point 59 °F    
Average Humidity 64    
Maximum Humidity 78    
Minimum Humidity 50    
Precipitation  
Precipitation 0.00 in - - ()
Sea Level Pressure  
Sea Level Pressure 30.07 in    
Wind  
Wind Speed 4 mph ()    
Max Wind Speed 12 mph    
Max Gust Speed -    
Visibility 9.4 miles    
Events      
T = Trace of Precipitation, MM = Missing Value Source: Averaged Metar Reports

Daily Weather History Graph

Daily Weather History Graph

Search for Another Location

Airport or City:

Trip Planner

Search our weather history database for the weather conditions in past years. The results will help you decide how hot, cold, wet, or windy it might be!

Date:

Astronomy

Dec. 13, 2011 Rise Set
Actual Time 6:55 AM MST 5:35 PM MST
Civil Twilight 6:30 AM MST 6:00 PM MST
Nautical Twilight 6:02 AM MST 6:28 PM MST
Astronomical Twilight 5:34 AM MST 6:56 PM MST
Moon 8:41 PM MST (12/13) 9:17 AM MST (12/13)
Length of Visible Light 11h 29m
Length of Day
10h 40m
Waning Gibbous, 90% of the Moon is Illuminated
Dec 13
Waning Gibbous
Dec 17
Last Quarter
Dec 24
New
Dec 31
First Quarter
Jan 9
Full

Hourly Weather History & Observations

Time (MST) Temp. Dew Point Humidity Pressure Visibility Wind Dir Wind Speed Gust Speed Precip Events Conditions
1:50 AM 70 °F 64 °F 76% 29.98 in 2 mi South 2.2 mph - -   Mostly Cloudy
4:50 AM 69 °F 62 °F 73% 30.01 in 2 mi South 2.2 mph - -   Mostly Cloudy
5:57 AM 64.4 °F 57.2 °F 77% 30.03 in 8.0 mi Calm Calm - N/A   Overcast
6:51 AM 64.4 °F 57.2 °F 77% 30.05 in 8.0 mi South 4.6 mph - N/A   Mostly Cloudy
7:41 AM 66.2 °F 57.2 °F 73% 30.12 in 10.0 mi South 6.9 mph - N/A   Mostly Cloudy
7:50 AM 69 °F 63 °F 76% 29.98 in 12 mi Calm Calm - -   Mostly Cloudy
8:40 AM 68.0 °F 57.2 °F 68% 30.07 in 10.0 mi South 6.9 mph - N/A   Mostly Cloudy
9:43 AM 73.4 °F 57.2 °F 57% 30.10 in 10.0 mi SW 6.9 mph - N/A   Overcast
10:46 AM 73.4 °F 55.4 °F 53% 30.15 in 10.0 mi South 6.9 mph - N/A   Overcast
10:50 AM 74 °F 62 °F 58% 30.09 in 16 mi South 6.7 mph - -   Mostly Cloudy
11:45 AM 75.2 °F 55.4 °F 50% 30.08 in 10.0 mi South 6.9 mph - N/A   Overcast
12:47 PM 75.2 °F 55.4 °F 50% 30.05 in 10.0 mi WSW 6.9 mph - N/A   Overcast
1:50 PM 76 °F 61 °F 51% 30.03 in 16 mi SW 4.5 mph - -   Mostly Cloudy
1:52 PM 75.2 °F 55.4 °F 50% 30.09 in 10.0 mi WSW 11.5 mph - N/A   Overcast
2:45 PM 73.4 °F 59.0 °F 61% 30.03 in 10.0 mi West 11.5 mph - N/A   Overcast
3:44 PM 73.4 °F 57.2 °F 57% 30.03 in 10.0 mi West 9.2 mph - N/A   Mostly Cloudy
4:49 PM 73.4 °F 59.0 °F 61% 30.14 in 10.0 mi SW 9.2 mph - N/A   Mostly Cloudy
4:50 PM 73 °F 62 °F 59% 30.03 in 16 mi South 4.5 mph - -   Mostly Cloudy
5:54 PM 71.6 °F 57.2 °F 60% 30.04 in 10.0 mi Calm Calm - N/A   Mostly Cloudy
6:53 PM 69.8 °F 57.2 °F 64% 30.05 in 10.0 mi West 6.9 mph - N/A   Mostly Cloudy
7:50 PM 71 °F 65 °F 78% 30.06 in 2 mi South 4.5 mph - -   Mostly Cloudy
8:30 PM 69.8 °F 59.0 °F 68% 30.17 in 10.0 mi Calm Calm - N/A   Mostly Cloudy
8:59 PM 68.0 °F 57.2 °F 68% 30.07 in 10.0 mi Calm Calm - N/A   Scattered Clouds
9:42 PM 68.0 °F 57.2 °F 68% 30.08 in 10.0 mi Calm Calm - N/A   Scattered Clouds
10:49 PM 66.2 °F 55.4 °F 68% 30.19 in 10.0 mi Calm Calm - N/A   Scattered Clouds
10:50 PM 68 °F 62 °F 75% 30.06 in 2 mi South 2.2 mph - -   Mostly Cloudy